Location: Cache
(41.8359°N, 112.0029°W)
Time: 00:57:37
(UTC+00:00)

Envisat - Visible Passes

Search period start: 22 February 2020 00:00
Search period end: 03 March 2020 00:00
Orbit: 764 x 766 km, 98.1° (Epoch: 21 February)

Date Brightness Start Highest point End Pass type
(mag) Time Alt. Az. Time Alt. Az. Time Alt. Az.
22 Feb 4.4 01:47:07 10° S 01:51:56 43° W 01:56:46 10° NNW visible
23 Feb 6.6 02:53:34 10° WSW 02:54:45 11° W 02:55:57 10° WNW visible
23 Feb 5.3 13:19:04 10° NE 13:23:28 29° E 13:27:51 10° SSE visible
24 Feb 5.5 02:13:27 10° SSW 02:17:34 25° W 02:21:43 10° NW visible
24 Feb 6.5 12:44:02 10° ENE 12:46:19 13° E 12:48:37 10° ESE visible
25 Feb 3.9 01:35:38 10° S 01:40:36 55° W 01:45:36 10° NNW visible
26 Feb 6.3 02:40:41 10° WSW 02:43:19 14° W 02:45:57 10° WNW visible
26 Feb 5.8 13:08:05 10° NE 13:12:05 23° E 13:16:04 10° SE visible
27 Feb 5.1 02:01:43 10° SSW 02:06:11 31° W 02:10:42 10° NNW visible
28 Feb 4.7 13:32:57 10° NNE 13:37:44 40° E 13:42:29 10° SSE visible
29 Feb 6.1 02:28:28 10° SW 02:31:53 18° W 02:35:19 10° NW visible
29 Feb 6.1 12:57:13 10° NE 13:00:41 18° E 13:04:07 10° SE visible
01 Mar 4.7 01:50:06 10° SSW 01:54:50 39° W 01:59:36 10° NNW visible
02 Mar 5.2 13:21:51 10° NNE 13:26:22 31° E 13:30:52 10° SSE visible
